Location: Home
(42.5358°N, 72.7383°W)
Time: 15:31:51
(UTC-05:00)

Vanguard 1 - Pass Details

Date: 06 December 2021
Orbit: 652 x 3830 km, 34.2° (Epoch: 19 January)

Event Time Altitude Azimuth Distance (km) Brightness Sun altitude
Rises 22:29:39 0° 230° (SW) 6,611 14.3 -65.0°
Reaches altitude 10° 22:33:38 10° 225° (SW) 5,929 13.9 -65.5°
Enters shadow 22:33:56 11° 225° (SW) 5,879 13.9 -65.5°
Maximum altitude 22:53:09 55° 155° (SSE) 4,263 - -67.6°
Drops below altitude 10° 23:14:50 10° 86° (E) 6,522 - -69.3°
Exits shadow 23:15:00 10° 86° (E) 6,550 14.1 -69.3°
Sets 23:19:27 0° 82° (E) 7,279 14.5 -69.5°
